Regional Weather Roundup
Issued by NWS

Home | Current Version | Previous Version | Text Only | Print | Product List | Glossary Off
Versions: 1 2 3 4 5 6 7 8 9 10 11 12 13 14 15 16 17 18 19 20 21 22 23 24 25 26 27 28 29 30 31 32 33 34 35 36 37 38 39 40 41 42 43 44 45 46 47 48 49 50

000
ASUS45 KPSR 230410
RWRAZ

ARIZONA HOURLY REGIONAL WEATHER ROUNDUP
NATIONAL WEATHER SERVICE PHOENIX AZ
900 PM MST FRI JUL 22 2016

NOTE: FAIR INDICATES FEW OR NO CLOUDS BELOW 12,000 FEET WITH NO
SIGNIFICANT WEATHER AND/OR OBSTRUCTIONS TO VISIBILITY.

AZZ001>003-036-230500-
NORTHWEST ARIZONA

CITY           SKY/WX    TMP DP  RH WIND       PRES   REMARKS
BULLHEAD CITY  PTCLDY   109  37   8 SE14      29.73R HX 103
KINGMAN        CLEAR     89  34  14 S10       30.02R
$$

AZZ004>008-015-016-018-230500-
NORTH CENTRAL ARIZONA

CITY           SKY/WX    TMP DP  RH WIND       PRES   REMARKS
GRAND CANYON   CLOUDY    67  55  65 E3        30.36R
WILLIAMS       LGT RAIN  70  52  52 S12       30.43R
PRESCOTT       CLOUDY    74  59  59 W3        30.24S
FLAGSTAFF      CLOUDY    66  50  56 N7        30.40R
PAYSON         CLOUDY    79  48  34 N6G12     30.24R
PAGE           CLOUDY    88  48  25 S18G24    30.09R
$$

AZZ009>014-017-230500-
NORTHEAST ARIZONA

CITY           SKY/WX    TMP DP  RH WIND       PRES   REMARKS
WINSLOW        CLOUDY    74  55  51 S5        30.20R
SAINT JOHNS    MOCLDY    73  49  42 S5        30.28R
WINDOW ROCK    CLOUDY    73  51  46 SE6       30.35R
SHOW LOW       MOCLDY    64  54  68 E5        30.34R
$$

AZZ023-230500-
GREATER PHOENIX AREA

CITY           SKY/WX    TMP DP  RH WIND       PRES   REMARKS
PHOENIX        PTCLDY   103  50  17 N13G22    29.80R HX 100
BUCKEYE        MOCLDY   102  48  16 N15G26    29.82R
LUKE AFB       MOCLDY   101  52  19 N22       29.80F
DEER VALLEY    MOCLDY    96  53  23 N24G38    29.84S
SCOTTSDALE     MOCLDY   102  47  15 N9G24     29.85S
MESA-GATEWAY   CLEAR    100  54  20 N12       29.84R
CHANDLER       CLEAR    100  52  19 N23       29.82R
$$

AZZ027-028-230500-
SOUTHWEST MARICOPA COUNTY AND PINAL COUNTY

CITY           SKY/WX    TMP DP  RH WIND       PRES   REMARKS
CASA GRANDE    CLEAR    100  54  20 N15       29.86S
GILA BEND      FAIR     107  47  13 W6        29.78R HX 103
$$

AZZ503-504-507>509-230500-
SOUTHEAST ARIZONA

CITY           SKY/WX    TMP DP  RH WIND       PRES   REMARKS
TUCSON         MOCLDY   100  52  19 N10       29.95R
DAVIS-MONTHAN  CLEAR     98  52  21 NW9       29.94R
NOGALES        MOCLDY    81  59  47 NE5       30.07R
SIERRA VISTA   PTCLDY    83  48  29 SW10      30.14S
DOUGLAS        MOCLDY    79  61  53 N8        30.07R
SAFFORD        PTCLDY    91  52  26 W13       29.98R
$$

AZZ020-021-025-026-031-230500-
SOUTHWEST ARIZONA

CITY           SKY/WX    TMP DP  RH WIND       PRES   REMARKS
YUMA           MOCLDY    99  57  24 S9        29.75R
$$

CAZ031-033-041-043-047-048-061-230500-
SOUTHERN CALIFORNIA

CITY           SKY/WX    TMP DP  RH WIND       PRES   REMARKS
DOWNTOWN L.A.  CLEAR     77  59  53 CALM      29.82R
L.A. AIRPORT   PTCLDY    74  59  59 S6        29.82S
SAN DIEGO      PTCLDY    76  67  73 NW5       29.85R
BURBANK        CLEAR     87  55  33 E7        29.84R
ONTARIO        PTCLDY    87  46  24 W6        29.86R
RIVERSIDE      CLEAR     90  52  27 W3        29.85R
PALM SPRINGS   CLEAR    105  47  14 N6        29.76R HX 101
EL CENTRO NAS  PTCLDY   100  59  25 SE10      29.72R HX 100
IMPERIAL       PTCLDY   104  62  25 SE9       29.70R HX 106
BLYTHE         CLEAR    108  52  15 S12       29.74R HX 105
NEEDLES        PTCLDY   110  39   9 SW12      29.76R HX 104
$$

NVZ020-UTZ003-230500-
SOUTHERN NEVADA-UTAH

CITY           SKY/WX    TMP DP  RH WIND       PRES   REMARKS
LAS VEGAS      PTCLDY   103  25   6 SW8       29.82R
SALT LAKE CITY PTCLDY    85  36  17 SW7       30.02R
$$

NMZ009-TXZ055-230500-
NEW MEXICO-WEST TEXAS

CITY           SKY/WX    TMP DP  RH WIND       PRES   REMARKS
ALBUQUERQUE    MOCLDY    90  40  17 SW8       30.14R
EL PASO        PTCLDY    92  41  17 E6        30.02R
$$


........................KEY........................
SKY/WX - SKY CONDITION/WEATHER
TMP    - TEMPERATURE IN FAHRENHEIT
DP     - DEW POINT IN FAHRENHEIT
RH     - RELATIVE HUMIDITY IN PERCENT
WIND   - DIRECTION AND SPEED IN MILES PER HOUR (MPH)
VRB    - VARIABLE WIND DIRECTION
PRES   - MEAN SEA LEVEL PRESSURE IN INCHES OF MERCURY
         F - FALLING PRESSURE   R - RISING PRESSURE
         S - STEADY PRESSURE
VSB    - VISIBILITY IN MILES
HX     - HEAT INDEX IN FAHRENHEIT
WCI    - WIND CHILL INDEX IN FAHRENHEIT
TC     - TEMPERATURE IN CELSIUS WHICH IS ALSO KNOWN AS
         TEMPERATURE IN CENTIGRADE
AFB    - AIR FORCE BASE
         LUKE AFB IS LUKE AIR FORCE BASE
         DAVIS-MONTHAN IS DAVIS-MONTHAN AIR FORCE BASE
NAS    - NAVAL AIR STATION
         EL CENTRO NAS IS EL CENTRO NAVAL AIR STATION
N/A    - NOT AVAILABLE




USA.gov is the U.S. government's official web portal to all federal, state and local government web resources and services.